Wheat Ridge, CO (80033)

9:49 PM MDT on April 29, 2017 (GMT -0600)
Crown Hill Park | | Change Station
Active Advisory: Freeze Warning

Elev 5480 ft 39.77 °N, 105.10 °W | Updated 53 seconds ago

Mostly Cloudy
Mostly Cloudy
28.6 °F
Feels Like 29 °F
N
0.0
Wind Variable Wind from NW

Today
High -- | Low -- °F
--% Chance of Precip.
Yesterday
High -- | Low -- °F
Precip. -- in
Pressure 30.22 in
Visibility 15.0 miles
Clouds Clear
Windchill 29 °F
Dew Point 28 °F
Humidity 97%
Rainfall 0.14 in
Snow Depth Not available.
6:03 AM 7:53 PM
Waxing Crescent, 19% visible
METAR KBJC 300347Z 28004KT 15SM CLR M02/M03 A3022 RMK LAST
Pressure 30.22 in
Visibility 15.0 miles
Clouds Clear
Windchill 29 °F
Dew Point 28 °F
Humidity 97%
Rainfall 0.14 in
Snow Depth Not available.
6:03 AM 7:53 PM
Waxing Crescent, 19% visible
METAR KBJC 300347Z 28004KT 15SM CLR M02/M03 A3022 RMK LAST

Get Your Daily Forecast Email!

Thanks for signing up!

Be on the lookout for a verification email in your inbox.

You'll start receiving severe weather alerts in your inbox..

×

10-Day Weather Forecast

Almanac

Astronomy

Apr. 29, 2017 Rise Set
Actual Time
Civil Twilight
Nautical Twilight
Astronomical Twilight
Moon
Length of Visible Light
Length of Day
Tomorrow will be .
, % of the Moon is Illuminated

Today's Extremes

State Highs State Lows

Community

WunderPhotos

WunderBlog® & News

Nearby

Air Quality

  Air Quality AQ Index Pollutant
Not available.

Snow Depth

Station Depth Elevation

Earthquake Activity

City Distance Mag. Time & Date
Minimum magnitude displayed is 2.5.

Coastal Water Temperatures

Place Temperature

Stations

Nearby Weather Stations

Station Location Temp. Windchill Dew Point Humidity Wind Precip. Elev Updated Type
                   

Watches & Warnings

Freeze Warning
Issued: 3:25 PM MDT Apr. 29, 2017 – National Weather Service

... Freeze warning in effect from 10 PM this evening to 8 am MDT
Sunday...

The National Weather Service in Denver has issued a freeze
warning, which is in effect from 10 PM this evening to 8 am MDT
Sunday.

* Temperature... lows in the mid to upper 20s in most areas.
Coldest spots near 20 degrees, mainly low lying areas north of
Denver.

* Impacts... damage to irrigation systems and tender vegetation.

Precautionary/preparedness actions...

Residents should drain sprinkler systems, unhook hoses, and
protect cold-sensitive vegetation.



Gimmestad